Zurück zum Katalog

NOAA 9

AktivWetterSSO
NORAD 15427·PAYLOAD·🇺🇸 United States

Gestartet Dec 12, 1984 von Vandenberg Space Force Base

Loading…

Nächste Überflüge (nächste 24 Stunden)

TLE

AktuellSource: Space-Track

Epoche: Sep 14, 2026, 12:59 UTC

1 15427U 84123A   26257.54108887  .00000040  00000-0  43078-4 0  9990
2 15427  99.0950 286.2339 0015674  96.6000  66.2218 14.17087487156071

Verfolge NOAA 9 in Echtzeit mit AllMySat

Download on the App Store